Location: Colonia Mina de C?rbuni
(46.1667°N, 22.7167°E)
Time: 15:54:41
(UTC+00:00)

Vanguard 1 Rocket - Pass Details

Date: 13 April 2024
Orbit: 650 x 4220 km, 34.3° (Epoch: 22 May)

Event Time Altitude Azimuth Distance (km) Brightness Sun altitude
Exits shadow 02:17:21 17° 237° (WSW) 5,880 10.8 -15.0°
Maximum altitude 02:22:36 19° 220° (SW) 6,084 11.0 -14.2°
Drops below altitude 10° 02:36:54 10° 185° (S) 7,383 11.7 -12.0°
Sets 02:45:56 0° 170° (S) 8,420 12.2 -10.6°
